Minneapolis, MN

6:07 AM CDT on June 21, 2018 (GMT -0500)
Minneapolis-Saint Paul International

Weather History for KMSP - August, 2016

Change the Weather History Date:

Wednesday, August 3, 2016

  Actual Average Record
Temperature  
Mean Temperature 83 °F 73 °F  
Max Temperature 91 °F 82 °F 99 °F (1941)
Min Temperature 74 °F 63 °F 46 °F (1971)
Degree Days  
Heating Degree Days 0 0  
Month to date heating degree days 0 0  
Since 1 June heating degree days 8 49  
Since 1 July heating degree days 1 5  
Cooling Degree Days 18 8  
Month to date cooling degree days 47 24  
Year to date cooling degree days 650 500  
Since 1 June cooling degree days 574 458  
Growing Degree Days 32 (Base 50)    
Moisture  
Dew Point 71 °F    
Average Humidity 70    
Maximum Humidity 87    
Minimum Humidity 52    
Precipitation  
Precipitation 0.00 in 0.15 in 2.36 in (2002)
Month to date precipitation 0.00 0.45  
Year to date precipitation 18.50 18.32  
Snow  
Snow 0.00 in 0.00 in 0.00 in ()
Month to date snowfall 0.0 0.0  
Since 1 June snowfall 0.0 0.0  
Since 1 July snowfall 0.0 0.0  
Snow Depth 0.00 in    
Sea Level Pressure  
Sea Level Pressure 29.97 in    
Wind  
Wind Speed 7 mph (South)    
Max Wind Speed 15 mph    
Max Gust Speed 19 mph    
Visibility 10 miles    
Events Fog    
T = Trace of Precipitation, MM = Missing Value Source: NWS Daily Summary

Daily Weather History Graph

Daily Weather History Graph

Search for Another Location

Airport or City:

Astronomy

Aug. 03, 2016 Rise Set
Actual Time 6:01 AM CDT 8:35 PM CDT
Civil Twilight 5:28 AM CDT 9:08 PM CDT
Nautical Twilight 4:46 AM CDT 9:50 PM CDT
Astronomical Twilight 3:58 AM CDT 10:38 PM CDT
Moon 6:54 AM CDT (8/3) 9:00 PM CDT (8/3)
Length of Visible Light 15h 40m
Length of Day
14h 34m
New Moon, 1% of the Moon is Illuminated
Aug 3
New Moon
Aug 10
First Quarter
Aug 18
Full
Aug 24
Last Quarter
Sep 1
New

Hourly Weather History & Observations

Time (CDT) Temp. Heat Index Dew Point Humidity Pressure Visibility Wind Dir Wind Speed Gust Speed Precip Events Conditions
12:53 AM 80.1 °F 83.6 °F 71.1 °F 74% 30.02 in 10.0 mi SW 4.6 mph - N/A   Partly Cloudy
1:53 AM 78.1 °F - 71.1 °F 79% 30.02 in 10.0 mi Calm Calm - N/A   Mostly Cloudy
2:53 AM 78.1 °F - 72.0 °F 81% 30.01 in 10.0 mi West 4.6 mph - N/A   Partly Cloudy
3:53 AM 75.9 °F - 71.1 °F 85% 30.01 in 10.0 mi NW 3.5 mph - N/A   Partly Cloudy
4:53 AM 75.0 °F - 71.1 °F 87% 30.01 in 10.0 mi North 3.5 mph - N/A   Clear
5:53 AM 75.0 °F - 72.0 °F 90% 30.01 in 8.0 mi Calm Calm - N/A   Partly Cloudy
6:53 AM 75.9 °F - 71.1 °F 85% 30.02 in 9.0 mi Calm Calm - N/A Fog Patches of Fog
7:53 AM 77.0 °F - 72.0 °F 84% 30.03 in 9.0 mi SSE 4.6 mph - N/A   Clear
8:53 AM 80.1 °F 83.8 °F 72.0 °F 76% 30.03 in 10.0 mi ESE 5.8 mph - N/A   Partly Cloudy
9:53 AM 82.0 °F 86.7 °F 72.0 °F 71% 30.01 in 10.0 mi SE 6.9 mph - N/A   Partly Cloudy
10:53 AM 84.9 °F 90.7 °F 72.0 °F 65% 30.00 in 10.0 mi SE 8.1 mph - N/A   Partly Cloudy
11:23 AM 84.9 °F 90.1 °F 71.1 °F 63% 30.02 in 10.0 mi Variable 4.6 mph - N/A   Mostly Cloudy
11:32 AM 84.9 °F 90.7 °F 72.0 °F 65% 30.02 in 10.0 mi SSE 8.1 mph - N/A   Scattered Clouds
11:53 AM 86.0 °F 91.5 °F 71.1 °F 61% 30.00 in 10.0 mi SSE 6.9 mph - N/A   Scattered Clouds
12:53 PM 87.1 °F 93.6 °F 72.0 °F 61% 29.98 in 10.0 mi SE 8.1 mph - N/A   Scattered Clouds
1:53 PM 89.1 °F 94.1 °F 70.0 °F 53% 29.97 in 10.0 mi South 11.5 mph 19.6 mph N/A   Mostly Cloudy
2:53 PM 89.1 °F 94.1 °F 70.0 °F 53% 29.96 in 10.0 mi South 10.4 mph 17.3 mph N/A   Scattered Clouds
3:53 PM 90.0 °F 95.4 °F 70.0 °F 52% 29.94 in 10.0 mi South 11.5 mph - N/A   Mostly Cloudy
4:53 PM 89.1 °F 95.0 °F 71.1 °F 55% 29.93 in 10.0 mi South 10.4 mph - N/A   Mostly Cloudy
5:53 PM 88.0 °F 92.9 °F 70.0 °F 55% 29.92 in 10.0 mi South 10.4 mph - N/A   Scattered Clouds
6:53 PM 88.0 °F 91.4 °F 68.0 °F 51% 29.91 in 10.0 mi South 10.4 mph - N/A   Partly Cloudy
7:53 PM 86.0 °F 90.7 °F 70.0 °F 59% 29.89 in 10.0 mi South 12.7 mph - N/A   Partly Cloudy
8:53 PM 84.9 °F 90.1 °F 71.1 °F 63% 29.88 in 10.0 mi South 9.2 mph - N/A   Partly Cloudy
9:53 PM 82.0 °F 86.3 °F 71.1 °F 69% 29.89 in 10.0 mi South 8.1 mph - N/A   Clear
10:53 PM 80.1 °F 83.6 °F 71.1 °F 74% 29.89 in 10.0 mi SSE 9.2 mph - N/A   Clear
11:53 PM 80.1 °F 83.6 °F 71.1 °F 74% 29.86 in 10.0 mi South 12.7 mph - N/A   Clear